Vacaville, CA

1:20 PM PDT on August 21, 2017 (GMT -0700)
Nut Tree

Weather History for KVCB - April, 2014

Change the Weather History Date:

Monday, April 14, 2014

  Actual Average Record
Temperature  
Mean Temperature 62 °F -  
Max Temperature 78 °F 74 °F 91 °F (1964)
Min Temperature 46 °F 44 °F 34 °F (1952)
Degree Days  
Heating Degree Days 3    
Growing Degree Days 12 (Base 50)    
Moisture  
Dew Point 47 °F    
Average Humidity 57    
Maximum Humidity 93    
Minimum Humidity 33    
Precipitation  
Precipitation 0.00 in - - ()
Sea Level Pressure  
Sea Level Pressure 30.03 in    
Wind  
Wind Speed 3 mph (SSW)    
Max Wind Speed 9 mph    
Max Gust Speed -    
Visibility 10 miles    
Events      
Averages and records for this station are not official NWS values.
T = Trace of Precipitation, MM = Missing Value Source: NWS Daily Summary

Daily Weather History Graph

Daily Weather History Graph

Search for Another Location

Airport or City:

Trip Planner

Search our weather history database for the weather conditions in past years. The results will help you decide how hot, cold, wet, or windy it might be!

Date:

Astronomy

Apr. 14, 2014 Rise Set
Actual Time 6:33 AM PDT 7:43 PM PDT
Civil Twilight 6:06 AM PDT 8:10 PM PDT
Nautical Twilight 5:33 AM PDT 8:43 PM PDT
Astronomical Twilight 4:59 AM PDT 9:17 PM PDT
Moon 7:27 PM PDT (4/14) 6:07 AM PDT (4/14)
Length of Visible Light 14h 04m
Length of Day
13h 10m
Full, 100% of the Moon is Illuminated
Apr 14
Full
Apr 15
Full
Apr 22
Last Quarter
Apr 28
New
May 6
First Quarter

Hourly Weather History & Observations

Time (PDT) Temp. Windchill Dew Point Humidity Pressure Visibility Wind Dir Wind Speed Gust Speed Precip Events Conditions
12:53 AM 53.1 °F - 46.0 °F 77% 29.98 in 10.0 mi SE 3.5 mph - N/A   Clear
2:53 AM 46.9 °F - 45.0 °F 93% 29.99 in 10.0 mi Calm Calm - N/A   Clear
3:53 AM 46.0 °F 44.8 °F 44.1 °F 93% 29.99 in 10.0 mi WSW 3.5 mph - N/A   Clear
5:53 AM 52.0 °F - 43.0 °F 71% 30.02 in 10.0 mi SW 4.6 mph - N/A   Clear
6:53 AM 46.0 °F - 42.1 °F 86% 30.04 in 10.0 mi Calm Calm - N/A   Clear
7:53 AM 54.0 °F - 46.0 °F 75% 30.05 in 10.0 mi Calm Calm - N/A   Clear
8:53 AM 61.0 °F - 46.0 °F 58% 30.07 in 10.0 mi Calm Calm - N/A   Clear
9:53 AM 66.0 °F - 43.0 °F 43% 30.08 in 10.0 mi Variable 3.5 mph - N/A   Clear
10:53 AM 68.0 °F - 46.0 °F 45% 30.09 in 10.0 mi ENE 4.6 mph - N/A   Clear
11:53 AM 72.0 °F - 43.0 °F 35% 30.09 in 10.0 mi Variable 3.5 mph - N/A   Clear
12:53 PM 73.9 °F - 43.0 °F 33% 30.09 in 10.0 mi Calm Calm - N/A   Clear
1:53 PM 75.0 °F - 51.1 °F 43% 30.08 in 10.0 mi South 6.9 mph - N/A   Clear
2:53 PM 75.9 °F - 51.1 °F 42% 30.06 in 10.0 mi SSW 5.8 mph - N/A   Clear
3:53 PM 77.0 °F - 52.0 °F 42% 30.04 in 10.0 mi SSW 9.2 mph - N/A   Clear
4:53 PM 78.1 °F - 52.0 °F 40% 30.01 in 10.0 mi SSW 8.1 mph - N/A   Clear
5:53 PM 75.9 °F - 50.0 °F 40% 30.00 in 10.0 mi SSW 6.9 mph - N/A   Clear
6:53 PM 75.9 °F - 48.9 °F 38% 29.99 in 10.0 mi SSW 4.6 mph - N/A   Clear
7:53 PM 71.1 °F - 50.0 °F 47% 29.99 in 10.0 mi SSW 4.6 mph - N/A   Clear
8:53 PM 64.0 °F - 50.0 °F 60% 30.01 in 10.0 mi SW 4.6 mph - N/A   Clear
9:53 PM 63.0 °F - 48.9 °F 60% 30.02 in 10.0 mi Calm Calm - N/A   Clear
10:53 PM 57.9 °F - 48.9 °F 72% 30.02 in 10.0 mi Calm Calm - N/A   Clear
11:53 PM 60.1 °F - 46.0 °F 60% 30.01 in 10.0 mi SSW 3.5 mph - N/A   Clear